RH
49 45 34 33 31 30 31 35 38 41 43 42 43 52 55 43 40 42 49 44 39 40 42 39 36 41 37 34 33 32 29 26 28 23 22 19 21 19 18 19 18 15 11 12
48 35 34 35 34 35 37 38 42 46 48 44 39 48 55 45 46 47 53 46 45 44 41 39 41 41 37 35 32 32 31 30 28 23 21 21 23 21 18 18 19 18 12 12
33 33 37 38 39 39 39 40 43 51 51 50 48 49 51 52 52 52 57 50 44 46 52 56 50 41 36 38 38 37 35 31 26 24 21 21 20 22 19 19 19 19 12 11
32 32 36 39 42 44 44 44 48 56 59 61 59 59 62 57 58 57 56 57 55 48 56 50 43 43 41 41 39 38 36 26 25 25 21 24 18 20 20 20 16 14 11 9
33 36 40 44 48 47 46 44 47 53 67 69 69 70 74 68 62 58 60 71 65 48 42 40 45 46 46 42 47 40 35 28 27 24 24 22 19 20 21 17 15 11 9 9
36 34 37 44 44 44 47 47 49 58 76 79 79 75 86 82 71 74 72 79 78 61 48 42 41 40 40 44 43 35 34 32 29 28 26 22 21 18 23 17 14 13 9 9
19 18 18 20 36 40 42 46 56 62 80 88 84 77 92 95 79 69 74 75 74 51 42 40 38 41 42 47 41 37 36 33 32 28 23 20 18 17 18 15 15 14 10 8
22 20 18 19 26 39 37 39 44 45 56 73 69 66 68 76 80 78 79 60 57 47 46 45 43 44 42 45 40 38 35 34 28 30 24 21 17 16 16 12 12 11 9 8
20 24 20 19 24 36 43 45 46 43 47 59 68 71 84 87 68 53 51 53 49 50 49 45 45 53 55 48 45 46 40 37 36 28 23 18 17 14 13 10 10 10 8 8
20 24 26 24 29 38 40 41 40 44 47 60 66 42 56 50 47 53 51 49 46 44 42 44 48 52 51 50 46 46 44 43 37 29 22 18 17 14 12 12 10 9 8 8
19 27 37 33 33 40 42 46 42 42 45 42 47 49 63 53 49 48 48 48 50 49 52 49 50 47 45 45 48 66 57 46 36 29 22 17 16 14 12 10 10 9 8 8
21 25 42 51 45 45 40 41 41 39 41 45 45 48 46 46 46 47 51 53 50 48 52 50 49 45 44 48 50 53 52 42 38 34 27 18 15 13 13 11 10 9 8 8
26 51 50 44 43 40 40 46 41 34 35 38 37 43 43 42 42 47 50 50 52 60 56 50 45 44 43 53 65 54 61 41 37 31 26 18 15 12 12 10 10 10 8 8
51 63 53 43 39 37 40 32 28 35 40 34 37 35 48 45 43 45 50 53 56 62 68 47 42 49 49 54 55 58 54 31 32 29 22 16 13 12 11 10 10 10 8 7
41 39 40 44 48 30 26 30 34 32 31 36 42 47 54 57 59 55 54 50 52 48 44 40 44 51 59 62 56 54 38 29 29 28 20 14 13 12 11 10 10 10 8 7
46 46 46 44 52 37 30 31 26 34 42 48 53 60 62 68 69 77 63 51 46 43 39 42 50 65 69 54 50 41 32 26 23 23 18 13 13 12 11 11 10 9 8 7
50 49 44 39 38 35 36 34 42 46 52 53 55 57 62 72 82 78 63 53 51 42 39 41 56 63 69 54 36 29 23 20 18 18 15 12 12 12 11 10 9 9 8 7
55 51 47 41 39 34 32 41 42 46 58 64 66 67 76 84 64 60 47 43 38 38 52 60 66 70 57 39 30 21 19 16 16 16 13 12 11 11 10 9 8 8 8 7
48 43 31 34 39 39 40 39 45 52 63 63 64 80 75 56 42 49 46 46 58 67 72 63 46 45 35 25 23 17 14 14 14 14 12 10 10 10 9 8 8 8 8 7
32 41 31 31 34 42 49 47 45 50 55 60 70 63 60 58 50 44 43 48 47 48 40 30 26 24 22 18 14 13 12 13 11 12 11 9 8 8 7 7 7 7 7 7
38 41 44 47 51 49 50 47 50 53 61 80 71 56 45 44 36 29 34 42 36 35 29 25 21 18 15 13 10 10 11 10 10 9 9 8 7 6 6 6 6 6 6 6
43 50 50 54 60 64 64 63 65 63 74 66 54 47 41 34 37 32 33 39 33 34 26 19 16 12 12 10 8 8 8 7 8 8 8 6 6 5 5 6 6 6 6 6
50 56 56 64 68 71 66 62 75 77 69 71 67 49 36 36 37 42 33 34 36 32 17 15 12 9 9 8 7 7 6 6 6 6 5 5 5 5 4 5 5 5 5 6
54 65 73 68 79 71 76 88 79 76 67 58 45 37 30 33 39 32 25 32 33 24 13 10 9 7 7 7 7 6 5 6 6 5 4 4 4 4 4 4 4 5 5 5
86 81 73 58 70 77 79 82 75 77 63 60 60 54 49 47 34 22 24 28 16 11 10 8 6 6 6 5 6 5 5 5 4 4 3 3 4 3 4 4 5 5 5 5
94 94 75 81 88 81 70 80 78 72 79 80 80 76 65 32 25 23 21 13 9 7 6 5 5 4 4 5 5 4 4 4 4 3 3 3 3 3 4 4 4 5 5 6
Wind_Speed
29 31 34 32 31 32 32 33 34 35 37 38 37 39 39 39 40 41 46 48 49 51 49 50 51 63 69 71 75 79 83 85 88 91 92 94 92 95 93 90 81 72 60 44
31 34 35 32 32 33 35 35 36 37 36 39 39 41 42 42 44 46 48 50 52 56 57 58 61 68 74 76 80 83 87 89 93 94 95 96 98 100 101 99 88 81 62 42
35 37 35 34 35 37 37 38 38 38 38 39 41 42 44 45 46 49 52 54 56 59 60 62 64 69 75 77 81 85 88 92 94 98 98 98 100 100 99 94 84 73 56 41
39 38 36 37 39 39 38 38 39 38 39 41 43 44 47 47 50 52 53 57 60 61 62 63 65 69 74 78 83 87 91 93 98 100 100 99 100 106 101 91 82 66 53 40
40 41 41 41 41 41 41 40 39 39 39 40 44 47 49 50 52 54 58 59 60 59 62 64 67 72 77 81 85 90 95 98 100 103 103 104 102 103 90 83 71 60 50 41
45 45 44 43 43 42 40 40 38 38 39 41 45 48 51 52 55 58 60 61 62 65 67 70 75 78 81 83 87 94 98 102 105 105 105 106 106 97 87 77 62 59 50 39
45 44 42 41 39 39 40 39 38 38 40 42 47 48 51 53 56 60 63 66 65 66 70 73 77 80 83 88 94 98 99 104 105 108 110 110 103 95 87 66 53 56 54 41
46 48 43 41 40 41 41 41 41 41 42 44 48 50 53 58 61 63 65 65 64 70 73 76 79 84 87 91 95 98 103 106 108 105 108 109 108 96 83 55 51 55 51 45
43 49 48 44 41 41 42 43 45 46 48 49 51 54 58 64 67 66 64 65 68 71 75 80 82 84 88 92 94 100 102 106 105 108 111 107 101 93 74 57 54 53 49 44
41 45 49 45 41 41 43 45 48 50 51 51 54 57 66 64 63 66 66 69 72 77 80 83 86 90 95 95 99 102 107 105 106 109 109 114 103 89 74 59 54 52 48 44
43 44 46 44 42 44 48 50 52 52 54 58 61 57 66 64 63 65 72 76 80 81 84 86 87 89 91 95 99 104 106 107 111 113 116 109 98 85 70 57 53 51 48 43
44 42 44 48 45 46 48 54 53 53 52 55 58 54 67 71 74 75 81 84 86 86 89 93 93 93 94 98 105 109 111 112 111 109 109 101 93 82 70 62 52 49 45 42
41 43 41 46 49 48 50 54 53 52 53 56 60 66 71 76 76 78 82 87 88 86 88 92 93 95 98 103 111 113 115 111 109 110 108 99 90 81 71 62 52 47 42 42
42 46 49 49 53 52 48 53 56 55 62 63 67 72 81 84 85 88 90 91 92 91 94 92 95 99 104 107 110 114 115 113 110 111 107 97 88 81 70 62 51 47 45 42
49 50 56 58 60 51 47 56 59 64 73 72 74 76 84 85 90 92 92 93 92 96 97 97 99 104 109 113 114 114 113 113 112 111 106 96 89 79 68 62 52 47 47 42
60 62 63 58 64 61 53 63 67 71 77 79 82 81 88 89 91 95 92 91 95 97 98 99 108 115 116 114 113 114 117 116 114 109 103 94 87 76 68 62 52 46 46 43
65 69 69 64 66 64 59 65 75 78 82 83 85 86 87 91 93 94 94 95 99 103 104 106 113 117 119 117 118 119 120 117 114 105 99 90 80 73 66 61 51 45 45 45
76 77 73 68 67 62 63 76 80 79 81 85 87 89 95 97 96 98 99 99 101 103 110 119 122 120 120 121 120 123 119 113 107 98 94 83 75 69 63 60 51 45 44 46
79 77 76 73 71 68 78 88 89 88 86 90 90 98 99 97 95 100 101 103 113 119 124 124 120 120 121 123 122 118 114 106 98 93 89 79 70 65 62 56 51 46 46 46
77 79 77 77 85 85 87 94 97 99 93 96 100 100 100 101 100 100 106 110 116 116 119 117 119 121 121 119 115 109 106 100 92 87 80 74 66 62 59 53 50 48 47 47
82 84 85 89 91 89 98 96 97 99 99 106 107 105 104 105 109 106 105 116 115 119 124 124 122 121 119 117 110 106 99 95 85 77 74 69 63 58 54 51 50 49 48 48
91 93 94 95 98 98 100 105 105 104 110 111 110 108 107 108 110 112 116 119 123 128 128 128 126 121 117 114 104 97 90 77 71 69 67 63 59 55 53 50 49 49 48 48
94 96 97 100 100 107 106 106 111 114 115 118 119 117 113 116 119 124 121 122 127 129 131 128 126 118 114 106 99 86 78 69 65 63 60 56 54 56 52 48 49 49 49 49
100 110 109 110 106 110 114 120 124 125 123 120 119 119 122 125 129 127 129 130 130 129 127 126 121 112 102 93 85 76 71 65 61 58 56 54 52 53 49 47 48 49 49 46
110 114 120 111 116 119 122 127 128 128 127 127 129 133 135 136 135 135 135 132 129 127 125 118 109 97 89 83 77 67 62 58 58 54 54 52 51 48 45 46 45 46 46 44
120 125 126 122 126 129 129 133 134 132 136 141 144 145 145 140 137 135 134 129 124 119 112 104 96 88 78 71 67 61 56 52 48 48 48 48 46 44 45 44 43 42 42 41
Wind_Direction
291 300 305 307 305 304 303 303 303 303 308 308 306 303 302 303 308 312 318 318 316 314 310 310 313 315 315 317 318 318 318 320 320 322 323 326 327 329 325 327 327 325 314 293
293 299 303 302 301 302 302 303 303 304 306 306 307 305 304 304 309 312 313 318 315 310 309 310 314 316 316 317 317 316 317 317 317 319 321 324 323 322 326 323 318 318 315 289
296 299 300 299 299 299 299 301 301 304 305 304 305 304 305 304 307 309 312 316 319 314 310 311 314 313 313 315 314 313 313 314 316 318 320 323 324 324 324 322 322 314 312 286
297 298 298 298 297 296 297 299 300 302 303 304 304 303 302 302 304 309 312 316 316 315 313 314 314 312 313 314 312 312 312 314 314 315 319 320 321 323 324 322 319 311 307 285
295 295 298 299 297 297 296 297 298 299 300 301 302 301 299 301 303 305 309 314 315 311 309 311 312 312 312 310 310 310 310 311 313 314 317 319 321 323 324 325 316 309 303 286
295 296 296 296 295 295 295 295 297 299 299 301 302 301 298 301 302 306 310 310 309 307 307 308 309 309 307 306 307 308 309 309 310 312 313 317 322 324 323 322 312 306 301 288
297 297 298 296 291 292 292 294 297 299 298 299 299 302 300 297 298 301 305 307 306 306 308 309 307 306 306 306 305 306 306 307 307 311 315 320 324 324 324 317 308 304 299 291
299 299 300 295 289 290 292 290 291 291 291 294 295 295 297 297 299 303 304 305 303 305 306 304 303 303 303 302 302 303 304 307 311 315 319 320 323 325 325 317 308 304 298 292
299 300 300 297 291 289 291 292 293 293 295 294 296 298 299 298 301 302 303 303 303 302 300 301 302 302 301 302 303 305 308 312 314 317 318 322 323 325 324 317 311 304 299 291
297 298 298 297 294 292 292 292 293 296 299 298 300 304 299 299 304 301 300 299 299 300 301 303 301 301 302 304 306 309 313 315 317 317 319 321 323 323 322 315 310 304 299 290
294 294 294 296 296 294 295 296 300 302 304 305 305 311 298 304 301 300 302 302 304 305 303 302 301 303 303 306 313 321 320 319 317 318 320 322 323 321 320 318 310 302 297 289
291 289 290 295 297 298 301 301 302 304 308 309 311 310 305 308 307 305 303 304 304 304 303 303 300 302 306 312 316 318 318 317 317 317 318 320 320 319 317 314 309 300 293 285
289 289 290 294 297 298 300 297 301 306 309 310 314 306 304 300 301 300 301 302 303 304 305 308 309 307 309 315 319 318 318 316 316 316 318 317 316 316 314 312 307 297 290 281
293 292 292 291 291 293 293 296 298 304 303 303 306 308 304 306 304 301 300 301 301 303 302 306 307 312 315 317 316 317 316 313 314 315 315 314 313 313 312 309 305 294 288 279
295 294 295 298 295 294 296 294 296 300 305 311 308 313 309 311 311 308 306 305 306 304 302 305 311 314 317 315 315 314 313 311 314 313 312 312 311 309 308 305 301 291 286 278
300 297 295 296 293 288 293 293 301 307 307 310 311 311 309 308 306 306 306 302 304 304 302 308 314 316 315 313 311 312 313 312 312 310 310 309 308 306 303 299 297 287 281 276
300 299 296 296 290 284 289 297 302 303 304 304 303 302 301 300 302 307 311 308 307 302 303 306 313 312 313 311 309 309 309 309 308 308 307 306 305 302 296 293 291 283 277 273
298 296 294 295 289 286 285 294 294 297 302 302 302 302 302 304 306 308 303 302 303 305 311 313 313 314 311 308 307 308 308 307 306 306 305 303 300 295 290 288 284 279 274 269
299 296 295 294 291 287 292 296 298 302 306 307 306 304 302 303 303 307 307 309 312 313 312 312 309 309 306 304 305 305 305 305 305 305 302 298 294 288 285 282 279 274 270 265
302 293 291 294 298 300 299 295 298 299 303 305 305 306 307 309 304 302 304 306 308 306 305 301 301 301 302 304 305 305 305 305 305 302 297 292 288 283 281 277 275 271 267 262
300 298 298 297 296 299 297 297 298 303 304 303 306 306 303 302 299 298 300 305 303 305 304 303 302 303 305 306 307 307 306 305 303 299 292 287 283 279 275 272 269 266 264 260
300 298 296 297 296 294 294 296 301 304 304 307 308 305 302 299 301 300 301 304 305 307 306 304 304 306 306 307 308 307 305 303 300 294 290 285 280 276 273 271 268 263 262 258
301 300 300 295 296 301 304 307 306 306 307 310 311 310 307 305 304 305 305 306 306 308 307 306 306 307 308 309 308 307 302 300 297 292 286 282 279 275 271 267 265 262 261 258
297 299 300 300 305 307 309 308 308 309 310 310 309 306 304 303 305 303 305 305 306 307 306 306 307 308 310 308 307 304 300 300 295 290 286 281 276 272 270 265 263 262 261 257
301 298 299 306 309 308 308 307 308 310 310 310 309 307 307 305 305 306 306 305 305 305 305 306 307 310 309 307 306 302 299 296 292 288 282 277 273 272 268 262 261 261 260 255
303 301 307 309 305 305 306 308 310 309 309 308 307 306 306 306 306 305 304 303 304 305 305 309 311 309 308 307 304 302 299 293 290 282 277 276 274 270 266 266 262 260 258 253